This is the latest recevied weather packets stored in our database for station/object EA5GTE-12. If no packets are shown the sender has not sent any weather packets the latest 10 day(s).
| Time | Temp. | Humidity | Pressure | Rain* | Wind** | Luminosity | Snow |
|---|---|---|---|---|---|---|---|
| 1787823499 | 25.56° C | 52% | 937.9 hPa | - | - | - | - |
| 1787822599 | 26.67° C | 50% | 937.9 hPa | - | - | - | - |
| 1787821699 | 25.56° C | 56% | 938 hPa | - | - | - | - |
| 1787820799 | 25.56° C | 57% | 937.9 hPa | - | - | - | - |
| 1787819899 | 25° C | 55% | 937.7 hPa | - | - | - | - |
| 1787818999 | 25° C | 59% | 937.6 hPa | - | - | - | - |
| 1787818099 | 25° C | 61% | 937.6 hPa | - | - | - | - |
| 1787817199 | 24.44° C | 62% | 937.6 hPa | - | - | - | - |
| 1787816299 | 25° C | 62% | 937.7 hPa | - | - | - | - |
| 1787815399 | 23.89° C | 68% | 937.6 hPa | - | - | - | - |
| 1787814499 | 23.89° C | 69% | 937.4 hPa | - | - | - | - |
| 1787813598 | 22.22° C | 83% | 937.5 hPa | - | - | - | - |
| 1787812698 | 23.89° C | 70% | 937.3 hPa | - | - | - | - |
| 1787811798 | 21.11° C | 93% | 937.3 hPa | - | - | - | - |
| 1787810898 | 18.33° C | 100% | 937.3 hPa | - | - | - | - |
| 1787809998 | 16.11° C | 100% | 937.1 hPa | - | - | - | - |
| 1787809098 | 15.56° C | 100% | 936.8 hPa | - | - | - | - |
| 1787808198 | 15° C | 100% | 936.9 hPa | - | - | - | - |
| 1787807337 | 14.44° C | 100% | 936.9 hPa | - | - | - | - |
| 1787807298 | 14.44° C | 100% | 936.9 hPa | - | - | - | - |
| 1787806398 | 15° C | 100% | 936.8 hPa | - | - | - | - |
| 1787805498 | 15.56° C | 100% | 936.8 hPa | - | - | - | - |
| 1787804598 | 15° C | 100% | 936.8 hPa | - | - | - | - |
| 1787803698 | 14.44° C | 100% | 936.7 hPa | - | - | - | - |
| 1787802798 | 15.56° C | 100% | 936.6 hPa | - | - | - | - |
* Rain since midnight (hover to see other rain measurements)
** Current wind speed in m/s (hover to see current wind gust speed)